Wind_Speed
15 10 11 12 12 15 16 16 17 17 15 13 12 11 13 12 11 12 14 18 18 13 12 14 11 12 10 8 7 5 4 3 6 12 15 19 21 21 22 21 18 17 15 12 10 8 7 9 8 7 8 7 6 6 7 7 7 8 7 4 3 2 2 2 2 2 2 3 3 4 7 8 11 12 11 11 12 11 10 10 10 12 14 16 16 15
16 11 12 15 15 17 17 17 17 18 18 14 11 10 12 12 10 12 15 19 18 12 12 14 12 13 10 8 7 7 7 8 11 12 16 22 24 20 19 20 18 16 17 15 13 13 12 11 10 8 8 8 7 7 8 9 7 7 8 5 3 2 1 1 1 2 1 2 3 4 6 8 9 10 10 11 10 10 10 10 13 15 16 16 16 17
13 12 15 17 17 17 17 16 17 19 18 14 10 9 9 10 9 11 15 19 17 10 11 14 13 12 11 10 9 10 10 16 21 20 20 21 22 20 17 19 18 16 16 15 13 14 14 14 15 13 12 12 10 9 8 8 7 5 5 4 3 2 1 3 2 1 3 5 4 4 5 6 7 7 8 9 10 11 11 12 14 15 15 15 16 17
10 12 16 17 17 17 17 16 17 16 14 11 10 8 8 10 10 9 12 17 17 10 11 15 14 10 11 10 8 10 12 16 19 18 18 18 20 20 18 18 17 15 16 14 12 11 11 13 14 14 13 12 10 8 7 6 5 3 3 3 1 2 3 3 4 4 4 3 2 3 4 5 6 7 8 8 9 11 12 12 13 14 15 14 15 16
11 13 17 18 17 19 18 16 17 13 10 11 12 9 9 12 14 11 8 12 13 12 15 12 12 8 10 10 8 9 12 14 13 13 15 15 16 17 17 18 16 15 15 14 13 11 9 10 10 10 9 9 8 7 7 6 5 4 4 5 3 4 4 4 5 6 3 0 0 3 5 5 6 7 8 9 9 10 11 11 12 14 14 14 14 15
13 15 18 19 18 19 18 15 16 14 9 10 13 14 14 12 16 13 12 12 9 10 15 11 9 7 10 11 10 9 9 12 11 11 12 11 11 12 15 15 14 14 13 13 13 12 11 9 8 9 7 7 7 7 7 5 5 5 4 5 4 3 2 3 4 5 3 1 2 3 5 6 6 7 8 10 10 11 11 12 12 13 14 15 15 15
11 16 18 18 19 20 18 15 16 16 10 7 11 16 18 13 15 13 16 13 8 8 12 11 7 6 9 11 12 12 10 12 10 9 10 9 10 10 12 13 12 12 12 13 13 13 13 11 9 9 8 7 6 5 5 4 3 5 4 4 3 2 2 2 2 2 3 2 2 3 4 5 6 8 9 10 11 12 13 13 13 14 15 15 16 17
11 17 18 19 20 17 16 13 14 17 11 7 11 16 17 15 16 13 16 12 8 8 10 12 11 7 8 12 16 17 13 13 10 8 8 8 10 11 12 12 12 12 12 13 14 14 14 13 11 10 9 9 6 6 5 4 4 4 3 3 2 2 0 1 1 0 2 3 3 3 5 5 6 7 9 10 11 12 13 14 14 13 14 15 16 17
12 16 17 19 18 14 13 13 15 18 13 10 12 14 15 16 17 13 13 11 8 8 10 13 13 8 6 10 15 17 13 12 12 9 8 9 11 11 12 12 12 13 12 13 15 14 13 13 13 11 10 8 7 7 7 6 6 4 3 2 1 3 3 2 1 1 1 2 3 4 6 7 7 7 9 10 10 11 12 14 14 14 15 17 17 18
13 17 18 16 14 11 13 15 17 17 13 13 14 11 13 15 13 12 10 11 9 8 9 12 13 9 5 9 13 13 13 12 12 10 9 11 12 11 12 11 11 13 13 14 14 14 13 13 13 12 11 10 9 9 8 8 7 5 5 4 1 2 5 5 4 3 3 3 3 5 7 9 10 10 11 12 12 12 12 13 15 16 17 17 17 17
14 18 18 13 13 13 14 17 17 16 14 14 15 11 12 12 9 10 8 8 7 7 11 15 16 13 7 8 10 10 11 14 14 11 11 13 13 13 12 12 11 12 12 13 13 13 13 13 12 11 12 12 11 10 9 8 8 7 7 8 7 4 3 3 3 4 4 4 4 5 7 9 10 11 12 13 13 12 11 13 15 16 18 17 17 18
15 16 13 11 16 15 14 15 15 15 16 14 13 10 10 8 6 8 6 7 6 7 12 16 16 15 9 5 8 8 11 15 15 13 13 14 14 15 14 12 12 12 12 12 12 12 11 12 13 11 12 12 12 11 11 10 10 10 10 10 10 9 7 6 3 1 2 3 4 6 7 8 10 10 10 11 11 11 11 13 15 16 17 18 18 19
14 14 12 14 18 17 13 11 13 13 13 13 11 9 9 8 6 7 7 8 7 8 13 16 15 10 3 2 6 10 13 15 15 15 16 16 16 16 14 13 12 12 12 12 12 12 11 11 11 11 11 11 12 12 11 11 11 11 12 12 12 11 9 8 7 6 5 3 4 5 7 8 10 9 9 10 11 11 11 13 15 16 18 20 20 20
11 13 16 15 14 16 15 10 10 11 12 13 12 9 9 9 7 7 7 8 8 10 13 17 14 7 3 4 5 11 15 16 17 18 18 18 17 16 15 13 12 12 13 12 11 11 11 10 10 10 11 11 12 12 12 12 11 11 12 12 12 13 12 11 9 9 8 7 6 6 6 8 10 10 10 11 11 11 11 12 14 16 18 20 22 20
13 12 14 13 10 14 17 13 11 11 11 12 12 10 10 9 8 7 7 7 7 9 11 12 7 4 5 4 7 13 18 19 20 20 19 18 17 15 15 13 13 13 12 12 11 10 9 9 9 10 10 11 11 12 12 12 12 13 13 12 13 13 13 14 15 15 13 11 11 10 9 9 9 11 12 12 11 11 11 11 12 14 17 19 19 19
14 11 12 16 14 16 18 16 14 13 11 10 11 11 10 10 8 5 6 6 3 5 8 5 1 4 5 7 11 16 17 18 19 19 19 18 16 15 14 13 12 12 11 11 10 9 9 9 10 10 10 10 10 12 13 13 13 13 12 14 14 12 12 14 15 14 15 16 16 16 17 15 12 12 12 12 12 12 13 13 12 12 15 17 17 18
12 10 14 19 17 18 20 18 16 13 9 7 10 12 10 12 11 4 5 5 1 3 4 5 6 5 6 6 9 14 14 14 16 17 18 18 17 15 14 12 12 11 11 10 9 9 9 9 10 10 10 9 10 12 12 12 12 12 13 16 14 13 12 11 12 12 12 16 16 15 18 20 17 15 14 13 14 15 16 17 15 14 14 15 16 17
10 9 14 20 17 18 21 20 19 17 12 8 9 11 9 11 11 4 3 5 4 5 3 8 10 9 7 4 7 13 14 13 13 14 16 16 17 16 14 12 12 11 10 9 8 9 9 9 9 9 10 10 10 11 12 12 12 11 15 16 12 13 13 11 15 14 13 17 15 13 16 20 19 18 18 17 17 17 17 18 18 18 18 17 16 16
11 9 11 18 16 15 18 17 16 17 19 14 9 9 7 7 9 5 3 5 6 6 3 7 11 10 6 6 11 14 15 14 13 12 13 13 14 15 15 13 11 10 9 9 8 9 9 9 9 9 10 11 11 12 12 12 12 12 13 11 10 13 14 14 18 15 13 18 18 12 13 15 16 18 20 20 20 18 18 19 19 19 19 19 19 18
10 8 7 16 17 14 13 11 11 12 17 17 12 10 8 7 7 7 5 5 6 6 5 5 7 5 4 8 15 17 15 16 15 11 11 12 13 15 14 12 11 10 9 9 8 8 8 9 10 11 11 12 12 12 12 11 12 12 11 10 11 14 13 13 17 15 10 13 16 14 12 13 14 17 19 21 23 21 20 20 20 19 19 18 19 19
8 7 6 12 16 14 10 10 12 12 13 14 12 11 10 7 7 8 7 7 7 6 5 5 5 3 2 2 11 16 15 14 15 13 12 14 15 14 14 12 10 10 9 8 8 8 9 10 11 11 11 12 12 12 12 11 12 13 13 13 13 14 13 13 16 16 13 13 15 16 17 17 16 16 18 21 23 23 22 22 22 21 20 19 19 19
5 5 6 8 12 12 11 13 16 15 13 13 11 11 11 10 8 8 8 9 9 7 6 4 4 3 2 4 3 12 14 14 17 16 14 16 16 15 14 13 11 10 9 8 8 8 9 10 11 11 11 12 12 12 12 12 13 14 14 15 15 16 16 15 16 17 16 15 17 17 18 19 19 18 19 20 21 22 23 22 22 23 22 21 21 21
5 4 6 8 9 12 14 16 18 19 19 16 13 12 11 9 9 9 7 7 8 8 7 2 3 3 3 7 2 10 16 18 19 19 18 17 16 15 14 13 12 10 9 9 9 9 10 11 11 11 11 11 12 12 13 13 13 14 15 16 17 17 17 17 18 17 17 18 19 19 20 20 20 20 21 21 22 23 23 23 23 24 24 23 22 22
5 3 7 8 8 12 15 15 17 19 19 15 12 12 12 11 12 10 7 4 4 7 6 3 4 2 3 6 3 16 21 20 20 20 20 18 16 16 15 14 12 11 10 10 10 10 10 11 12 12 12 11 11 12 13 14 15 16 17 17 17 18 18 18 19 18 19 20 21 21 21 21 19 20 22 23 23 24 24 25 25 25 25 25 23 22
7 5 8 9 8 10 12 11 14 17 15 10 10 14 15 15 14 11 7 4 2 8 10 3 3 3 2 1 8 18 19 18 20 20 20 19 17 16 15 14 13 12 12 13 12 12 12 12 12 12 12 12 12 13 14 15 16 17 18 18 19 19 19 19 19 20 20 21 20 21 22 22 21 21 23 24 25 25 24 25 26 26 27 27 25 24
8 6 6 8 9 10 10 10 11 11 11 10 13 19 19 18 16 10 6 5 4 8 9 2 6 7 6 6 11 15 15 16 19 19 19 18 17 16 16 15 14 14 13 13 12 12 12 11 12 12 13 12 12 14 14 15 16 17 18 19 19 19 19 19 20 20 20 20 20 21 23 23 23 23 23 24 25 25 25 25 26 27 27 27 27 27
6 5 8 11 10 7 7 11 11 11 12 13 15 18 18 18 18 11 6 6 5 4 1 3 13 16 11 11 13 15 15 15 16 18 19 18 17 17 16 16 15 14 14 13 12 12 12 12 12 13 13 12 13 15 15 15 16 17 19 19 20 19 18 19 19 19 19 20 20 21 23 23 23 24 24 24 24 25 25 25 26 27 28 27 27 28
3 6 10 11 8 3 3 7 13 15 15 15 16 17 15 16 17 12 5 2 2 1 2 6 17 19 14 13 15 15 15 14 15 19 19 18 18 18 17 17 16 15 14 13 12 12 12 12 12 12 12 12 12 14 15 16 16 18 19 19 19 19 18 18 19 19 19 19 20 21 22 22 22 23 24 25 25 25 26 26 26 27 27 27 28 29
3 6 6 4 5 4 3 4 7 12 14 13 14 15 13 13 14 11 2 7 6 3 7 12 17 17 15 14 13 14 15 15 16 19 19 19 19 19 18 18 16 15 14 12 12 12 11 12 11 11 12 12 12 14 14 15 17 18 19 18 18 18 18 18 18 18 18 19 20 21 21 21 22 22 24 25 26 27 27 26 27 27 27 28 29 30
5 4 5 3 5 8 7 2 6 9 13 14 16 16 14 10 9 9 6 14 13 11 15 18 17 15 14 14 12 13 16 18 18 18 19 20 19 19 19 18 16 15 13 12 12 12 11 11 11 11 11 12 13 14 14 15 17 18 18 17 17 18 18 18 17 18 18 19 20 20 20 21 22 23 24 25 26 27 27 27 27 28 28 28 29 31
6 4 6 5 4 7 6 3 1 2 3 8 14 13 8 1 5 3 11 17 16 14 17 20 18 12 11 14 15 16 18 19 18 18 19 19 19 19 19 17 15 14 13 12 12 11 10 11 11 11 11 12 13 14 15 16 16 17 17 17 17 17 17 17 17 18 18 19 19 20 21 22 23 23 24 25 25 26 27 27 27 28 28 29 30 31
6 3 3 4 5 8 7 7 6 8 10 6 3 5 6 8 9 7 8 9 13 17 17 16 13 9 11 16 17 17 19 20 19 19 19 18 19 19 18 17 16 14 13 12 11 11 10 10 10 11 11 12 13 14 15 15 15 16 16 16 16 16 16 17 18 19 19 20 20 21 22 22 23 23 24 25 26 26 26 26 27 28 28 29 30 31
5 4 2 4 5 4 5 8 10 9 8 6 9 11 9 7 9 9 9 7 12 16 11 8 9 11 15 18 17 16 18 18 18 18 18 19 19 19 18 17 15 14 13 12 11 10 10 10 10 11 11 12 13 13 14 14 14 15 15 15 15 16 16 17 18 19 20 21 21 22 22 23 23 24 25 25 26 26 26 27 28 29 30 29 28 30
6 6 3 4 5 3 4 7 10 7 4 3 4 7 3 10 12 13 12 11 10 10 7 9 14 17 17 16 17 18 18 18 18 17 17 18 19 19 18 16 15 14 13 11 11 10 10 10 11 11 11 12 13 13 13 13 13 14 13 14 15 15 16 16 17 19 19 20 21 22 22 23 23 24 25 26 27 27 27 28 29 31 32 30 28 29
6 7 5 0 2 4 4 5 7 4 2 1 4 4 9 15 16 17 15 13 12 13 16 19 19 18 18 19 21 23 22 21 20 17 16 17 18 19 18 17 15 14 13 12 11 11 11 11 11 11 11 12 12 12 12 12 13 13 13 13 14 15 16 16 16 18 19 20 21 21 22 23 24 25 26 26 27 28 29 29 29 31 33 32 31 31
7 6 4 3 2 4 4 4 4 2 0 2 3 9 14 13 13 14 13 11 10 11 16 18 18 19 23 25 26 26 26 23 20 17 17 17 17 18 17 16 15 14 13 12 11 12 12 11 12 12 12 11 11 12 12 12 12 12 13 13 14 15 16 16 16 18 19 20 21 21 22 23 24 25 26 26 27 28 30 30 29 29 31 32 33 33
8 6 5 4 2 4 4 3 3 2 1 2 6 8 8 5 5 7 7 6 6 8 14 18 18 20 25 27 28 29 28 24 18 15 15 16 16 17 16 16 15 14 13 13 12 12 12 11 12 12 11 11 11 12 11 11 11 12 12 13 14 14 15 15 16 17 18 19 20 20 21 22 23 24 25 26 27 28 29 30 30 29 29 30 32 34
5 4 4 5 4 5 5 4 4 5 3 3 7 8 6 8 10 12 9 5 4 10 18 19 19 21 26 28 30 30 24 16 10 10 14 16 16 16 16 16 15 14 14 13 12 12 11 11 11 11 11 11 11 11 11 11 11 11 12 13 13 14 15 15 16 17 17 18 19 19 21 22 22 23 24 25 26 27 28 30 30 29 28 27 29 32
6 2 1 2 4 5 5 5 5 3 2 5 11 10 8 10 13 12 6 3 7 15 21 21 21 24 26 28 29 24 14 7 6 11 17 18 16 16 16 16 15 14 13 12 12 12 11 11 11 10 10 11 11 11 11 11 11 12 12 13 13 13 15 15 16 16 17 17 18 19 20 21 22 23 24 25 26 26 27 28 30 30 28 26 27 30
7 4 2 1 4 5 4 3 3 2 3 6 12 12 9 9 10 6 2 5 14 20 22 23 24 25 26 27 23 14 5 5 11 17 21 20 17 17 16 15 15 14 13 12 12 11 10 10 10 10 11 11 11 11 11 11 12 12 12 12 13 13 14 14 15 15 16 17 17 18 19 20 21 22 23 25 25 25 26 27 28 30 30 27 26 27
4 3 1 2 4 5 4 3 3 3 4 6 11 12 11 9 8 5 2 8 21 25 24 25 25 25 26 24 16 7 8 14 21 25 24 21 18 17 16 15 15 13 12 12 11 11 10 10 11 11 11 11 11 11 11 12 12 12 12 13 13 13 13 13 14 14 15 16 16 17 18 19 20 20 21 23 25 25 25 26 27 28 29 28 27 27
3 2 0 2 2 3 3 3 5 3 0 3 9 12 9 6 4 1 7 19 28 28 25 25 25 24 24 19 13 16 22 27 28 27 24 21 19 18 16 15 14 13 13 13 12 11 11 11 11 11 11 11 11 11 12 12 12 12 12 13 13 13 13 13 14 14 14 15 16 16 17 18 19 19 19 21 23 24 25 24 25 28 29 28 27 27
3 3 3 1 1 2 2 3 3 2 1 5 8 8 2 3 4 12 19 25 27 26 26 26 24 23 21 18 20 26 29 30 28 26 23 21 20 19 17 16 15 14 13 12 12 11 11 11 11 10 10 10 11 11 11 12 12 12 12 13 12 12 13 13 13 14 14 15 15 16 17 18 18 18 19 20 21 24 24 23 24 27 29 29 27 26
3 1 3 2 1 1 3 2 1 4 6 7 7 6 6 9 15 21 24 25 24 25 26 25 23 22 21 23 26 28 28 28 26 24 23 21 20 19 17 15 15 14 12 11 12 11 11 11 11 10 10 10 10 10 10 11 11 12 13 13 12 12 12 12 13 13 13 14 15 15 16 17 17 16 18 21 22 23 23 23 24 28 29 28 27 26
5 5 7 5 3 2 4 4 5 10 10 8 10 15 17 19 20 22 24 26 26 26 25 25 25 24 24 26 29 28 27 27 26 24 23 22 20 19 17 15 14 15 13 13 13 12 11 11 11 10 10 10 10 10 10 10 10 11 12 12 11 11 11 11 12 13 13 13 14 15 16 18 17 14 16 21 23 22 22 22 24 28 29 28 27 26
9 13 12 9 7 8 9 8 9 12 13 14 18 20 20 20 21 22 24 26 26 26 25 26 26 26 27 28 29 28 27 27 25 24 22 21 20 19 18 16 16 15 14 13 13 12 11 11 11 10 10 10 9 9 9 8 9 10 10 11 11 11 11 11 12 13 13 13 14 15 15 17 18 15 15 21 23 21 21 22 23 27 29 27 27 27
10 12 10 8 9 8 5 5 9 13 15 18 20 20 21 21 22 22 23 24 25 25 25 26 27 29 29 28 27 28 28 27 26 24 22 21 20 19 17 17 15 14 14 13 12 11 11 11 11 10 10 9 8 8 8 8 8 9 10 10 11 11 11 11 12 13 13 13 14 15 15 16 18 17 16 19 23 23 22 22 23 27 30 28 28 28
8 11 10 8 9 8 8 10 13 16 17 19 19 20 21 22 21 22 22 24 25 25 27 29 30 29 27 26 27 29 28 25 24 24 22 21 20 18 17 17 15 14 14 12 11 11 11 11 11 10 10 9 8 8 7 7 8 8 9 10 11 11 10 11 12 13 13 13 13 15 15 15 17 19 17 18 22 24 24 23 23 26 29 28 27 28
8 9 8 9 11 11 10 13 16 16 15 16 18 20 21 22 23 23 24 25 27 28 29 29 27 27 27 28 28 28 27 25 24 23 22 21 19 18 17 16 15 15 14 12 11 12 12 12 11 10 9 9 8 8 8 8 9 9 8 9 10 10 10 10 11 11 12 13 13 14 15 15 16 18 18 18 21 24 24 22 22 25 28 29 27 27
9 9 8 10 10 8 10 14 15 12 10 14 19 21 21 22 24 25 26 27 27 29 29 27 26 26 26 26 27 26 26 25 24 22 21 19 19 18 17 16 16 15 13 12 12 12 12 12 10 10 9 9 8 8 8 8 8 8 9 9 9 10 10 10 10 11 11 12 13 14 15 14 15 16 17 17 19 22 22 22 23 24 26 28 27 26
8 5 4 7 7 9 16 20 17 14 15 18 22 23 23 24 24 25 27 27 27 27 28 28 29 28 26 25 24 23 23 23 22 21 20 19 19 18 17 16 16 15 14 14 13 13 12 11 10 9 9 8 8 8 8 8 8 8 8 8 8 9 9 9 10 11 12 11 13 15 15 14 14 16 17 16 18 19 19 21 23 24 25 27 27 25
Wind_Direction
193 198 208 212 212 208 211 214 222 235 231 218 207 211 225 226 227 213 172 161 183 197 197 203 186 155 153 146 141 145 145 137 128 117 108 112 109 103 111 116 112 107 100 94 96 102 97 94 103 105 100 100 102 108 110 104 100 98 94 80 66 67 35 49 116 142 148 186 215 245 256 262 262 268 274 274 276 280 281 283 288 290 291 292 288 285
200 212 214 211 214 211 211 215 222 238 245 242 223 208 223 233 224 202 171 161 180 200 200 190 159 144 135 113 94 77 85 62 59 74 78 93 103 102 107 110 107 104 100 95 94 103 105 104 110 108 112 117 106 106 110 108 112 125 129 130 124 118 47 12 106 125 141 215 220 236 256 262 261 270 278 274 273 276 278 284 289 289 287 286 284 282
205 218 215 209 215 217 215 214 219 234 243 254 247 216 218 231 224 207 181 166 175 202 201 172 145 132 115 99 82 66 73 63 55 60 72 89 98 99 104 103 100 97 92 90 91 103 112 111 112 115 116 113 107 113 121 112 112 132 140 146 167 176 263 297 316 299 234 230 227 244 266 277 278 279 281 279 276 276 279 283 286 286 287 287 284 281
204 213 213 209 213 217 219 212 215 231 235 243 251 229 218 215 217 219 188 170 170 194 206 161 136 133 122 116 102 80 82 77 67 67 75 83 89 95 104 101 100 99 91 89 88 94 112 118 112 110 112 115 120 124 123 114 110 114 95 66 13 5 358 333 341 330 276 237 230 272 284 289 292 293 293 291 288 286 287 287 288 290 291 291 289 286
208 203 206 210 210 212 220 213 210 225 225 229 240 238 226 206 216 227 177 165 168 193 218 171 132 145 140 137 133 106 95 92 86 83 80 83 88 89 92 93 94 97 93 91 89 84 98 113 107 98 103 117 124 113 104 109 110 108 103 86 63 43 37 19 7 353 335 35 9 302 304 308 306 307 303 301 303 299 297 295 294 292 292 292 290 289
215 200 198 209 210 208 217 215 209 218 217 222 229 239 244 218 218 216 159 162 178 196 220 191 143 159 158 158 154 137 117 104 99 97 90 85 90 87 84 87 87 89 91 90 90 84 83 92 97 94 97 111 117 107 95 95 99 104 114 109 89 66 57 46 20 355 349 26 0 320 314 319 317 312 308 308 312 309 305 303 300 296 294 292 292 291
215 203 197 206 209 206 215 216 207 211 218 220 216 234 252 243 230 207 153 166 200 199 217 202 172 173 179 180 161 146 128 111 107 104 100 88 88 88 83 85 86 90 94 92 89 84 79 78 82 84 81 84 92 101 106 109 103 101 100 100 88 64 40 58 54 348 332 329 329 320 315 318 316 311 309 307 307 306 307 305 302 299 295 295 295 293
205 206 200 203 207 204 212 216 201 204 218 222 208 221 242 250 245 212 156 168 211 203 220 212 198 209 202 183 158 148 134 119 121 117 112 100 90 89 84 82 85 90 93 90 86 81 79 75 74 74 71 73 71 68 83 103 115 113 108 111 111 108 73 64 94 288 317 322 321 314 305 301 303 306 304 302 302 302 303 302 300 299 298 296 295 293
195 211 206 198 206 207 205 211 203 202 213 224 212 208 225 242 254 233 176 175 203 205 227 214 202 223 209 164 151 152 150 137 132 130 126 114 100 93 90 88 86 86 86 83 81 80 80 77 75 73 68 70 70 61 58 66 82 103 113 120 179 208 224 224 204 240 332 332 315 302 298 293 290 289 287 289 292 294 296 297 297 296 296 295 293 296
185 213 218 196 204 213 199 208 211 203 204 226 224 203 214 234 255 258 216 188 191 204 231 215 199 218 203 151 152 163 169 158 140 136 133 120 113 105 101 100 96 92 84 77 77 76 75 75 73 71 66 62 60 57 55 56 60 75 82 59 15 232 239 241 237 249 268 278 276 279 288 290 291 290 288 290 289 286 289 295 298 299 298 295 293 293
186 205 227 208 201 212 202 205 213 205 198 223 237 216 209 224 247 267 240 194 194 209 229 220 202 211 211 156 164 181 175 155 140 141 138 126 122 118 113 112 103 94 85 77 73 70 68 67 63 60 59 57 53 49 47 48 45 51 58 40 23 9 331 301 243 233 236 246 258 270 281 291 296 299 299 303 304 300 301 302 301 302 302 299 295 291
200 195 223 220 203 207 206 202 208 206 198 214 238 224 204 206 229 254 227 187 202 216 229 227 208 208 219 181 174 182 161 144 139 145 143 134 130 126 121 116 106 94 85 78 69 64 63 60 55 51 50 48 47 47 42 39 39 38 40 33 23 16 7 3 349 305 246 239 251 262 273 283 288 294 298 305 308 307 309 306 302 302 302 302 299 295
212 197 201 210 200 200 208 201 202 204 197 209 228 220 205 195 202 233 220 197 207 217 225 225 210 201 209 114 136 136 130 129 134 141 139 134 131 128 123 116 107 94 82 74 65 59 56 54 51 47 46 44 43 45 42 40 41 38 36 32 23 13 6 5 8 9 357 323 294 273 265 271 277 280 285 293 295 297 305 307 306 306 304 305 304 298
210 203 195 200 193 198 216 210 194 198 195 205 216 212 209 201 193 214 220 211 213 221 226 222 209 181 114 63 85 109 112 117 127 134 132 128 124 121 118 111 102 91 80 71 64 59 54 52 52 47 46 47 45 45 44 42 43 42 38 33 24 16 9 7 6 359 352 354 350 318 285 285 291 287 287 289 284 287 301 307 309 311 308 307 307 302
204 205 188 192 189 193 215 224 204 192 194 205 214 216 213 205 203 208 217 225 219 226 233 227 215 161 142 117 96 108 112 118 125 126 124 120 117 114 111 105 97 88 80 74 66 61 58 54 54 52 48 49 49 49 46 42 43 44 40 35 32 28 21 14 6 356 354 352 347 342 332 321 314 305 302 300 288 285 293 300 310 315 312 311 310 308
207 213 180 188 202 196 207 225 212 193 196 204 213 222 210 204 216 207 207 230 232 237 236 216 74 67 118 118 114 118 120 126 130 128 125 121 118 115 108 102 97 87 81 77 70 63 59 58 56 54 52 50 51 51 48 44 40 40 42 37 31 34 33 27 17 6 2 352 346 358 357 344 339 329 317 311 300 288 283 289 302 309 308 310 309 309
202 215 184 184 203 204 203 215 214 205 199 192 213 225 201 200 224 217 196 220 240 256 227 123 97 99 114 123 132 130 128 137 140 134 131 126 121 114 107 102 97 90 84 78 74 66 58 59 59 56 56 54 53 53 50 47 39 34 41 36 26 26 27 28 22 4 356 353 355 15 5 345 346 345 331 322 312 299 290 290 293 292 295 303 306 308
206 219 195 185 197 204 201 210 220 220 211 194 212 220 194 201 226 229 198 209 209 235 214 122 134 150 145 146 152 147 145 150 151 143 135 129 123 114 107 107 101 95 92 83 77 70 61 62 62 61 61 57 56 54 49 45 39 36 42 37 25 19 16 30 33 10 353 353 359 33 20 350 346 346 335 329 320 312 308 302 297 293 292 297 303 307
209 221 192 181 193 198 194 208 223 219 213 212 207 198 197 214 220 213 209 210 206 221 204 132 145 162 162 154 160 163 162 159 155 148 139 132 124 116 111 111 106 99 93 84 76 70 66 66 65 65 64 59 56 53 48 44 38 38 41 33 27 22 16 36 38 11 353 355 353 16 23 355 346 342 337 339 334 328 324 318 313 309 303 299 298 301
204 231 192 176 191 195 186 204 221 205 203 214 208 191 206 230 218 209 206 209 219 222 203 156 163 178 151 153 169 170 163 159 155 148 141 134 126 119 116 113 108 102 93 84 80 75 71 70 69 69 64 59 57 52 49 47 40 41 39 32 39 35 20 31 29 4 352 359 353 358 5 358 354 347 347 350 344 341 340 334 330 327 323 313 303 298
194 228 212 178 187 196 192 199 214 209 197 207 212 196 199 219 227 222 205 204 224 226 201 173 169 164 77 140 178 168 157 155 150 142 138 132 125 118 117 115 110 105 96 89 86 80 77 77 73 71 64 59 59 56 53 50 43 43 42 37 42 43 28 25 27 17 7 3 1 4 3 0 359 354 357 356 348 347 351 347 342 338 335 328 317 309
186 210 214 187 184 196 203 196 208 218 205 196 207 208 203 203 214 223 212 205 214 227 225 192 151 136 38 339 199 158 151 149 143 139 133 126 122 116 115 117 113 109 102 94 92 89 86 82 74 69 65 61 59 57 52 48 43 40 42 38 36 39 32 24 26 23 11 5 6 7 5 3 2 0 359 356 353 353 354 351 347 341 338 335 330 325
178 214 211 198 192 202 207 196 201 219 219 208 206 212 213 205 204 219 227 211 205 225 237 191 102 98 8 335 336 140 143 142 138 136 129 122 121 118 118 120 117 112 106 99 99 97 88 82 75 70 67 62 58 56 53 50 45 39 41 41 35 35 33 27 26 19 8 10 10 7 7 5 3 2 358 356 358 355 352 352 351 347 344 340 336 332
160 222 209 197 197 208 210 197 195 214 226 222 207 208 222 221 205 207 229 222 196 225 222 106 82 103 9 341 82 124 132 135 131 129 126 125 124 122 122 121 118 113 107 104 101 97 93 86 78 72 70 65 58 57 55 49 44 40 40 40 35 33 31 28 26 18 12 15 12 7 7 3 0 1 359 358 359 356 354 356 354 351 348 345 340 336
159 213 208 196 189 198 205 196 193 204 215 220 206 206 221 231 222 212 221 214 190 234 227 162 100 129 107 58 114 120 127 130 127 126 127 128 127 125 124 121 118 113 108 105 98 91 90 84 72 67 68 65 57 55 54 47 42 40 38 37 35 32 28 26 25 19 15 15 12 9 6 2 0 2 360 360 359 356 357 359 355 352 352 349 345 341
171 204 198 202 194 190 200 200 193 194 202 213 212 208 211 223 230 222 205 209 208 225 233 172 116 123 123 129 127 127 130 129 128 129 128 129 128 126 125 121 119 114 108 104 96 87 80 67 59 62 63 57 51 49 48 45 42 39 36 35 36 31 24 25 26 21 15 12 9 10 7 3 3 3 1 2 360 356 359 0 355 355 356 353 350 348
183 209 198 214 208 194 210 209 198 193 201 208 211 212 210 216 232 234 210 222 221 196 256 105 136 141 144 147 141 139 137 131 133 132 129 130 128 126 125 121 118 114 107 101 94 86 76 62 54 55 52 46 44 44 43 43 40 37 35 34 35 30 24 25 26 21 16 12 9 10 8 5 5 4 2 2 360 358 1 1 358 359 1 358 355 354
200 206 199 223 226 231 265 221 212 210 207 204 206 215 217 214 228 241 214 198 247 166 87 127 140 141 151 159 150 145 141 136 137 135 132 133 130 127 125 121 117 111 104 99 92 83 77 71 63 57 50 45 44 43 43 42 39 36 35 34 32 28 24 26 27 22 18 13 11 12 9 5 7 6 3 3 2 2 3 3 2 3 4 4 2 0
207 203 188 233 244 241 271 292 264 233 211 203 205 218 229 217 218 228 165 73 54 97 134 143 141 137 147 154 147 142 139 134 134 133 133 133 130 127 125 120 116 110 103 97 90 82 78 75 70 63 57 52 49 46 44 41 39 37 35 34 32 29 24 25 26 22 19 16 15 14 9 7 10 7 4 6 5 2 2 4 5 5 7 8 7 5
207 189 154 199 239 233 223 276 297 251 221 214 206 212 229 233 229 223 136 91 90 110 128 136 133 128 140 146 139 132 131 130 132 134 135 134 132 129 124 119 114 109 105 99 91 87 82 77 72 65 60 54 50 48 45 41 39 37 35 33 32 30 25 24 25 22 20 18 16 13 10 10 11 7 6 8 6 2 2 3 3 5 7 9 8 7
197 158 145 174 218 228 194 138 307 292 269 231 210 207 217 22 25 82 104 97 99 111 120 124 121 121 135 136 129 127 130 133 137 140 138 135 133 129 122 118 115 111 108 103 97 92 85 78 74 67 61 55 51 48 45 42 40 38 36 34 32 31 27 24 24 23 20 19 16 13 12 12 11 9 9 8 6 5 4 3 2 3 5 7 8 7
186 158 152 176 198 209 177 134 116 80 53 40 43 25 31 53 54 65 85 99 119 123 123 125 125 135 139 130 125 129 137 141 141 141 137 133 133 129 121 119 118 115 112 107 101 96 88 80 74 66 61 56 52 49 46 44 42 39 38 36 33 32 30 26 25 25 23 21 18 16 15 13 11 11 10 8 7 6 5 5 4 3 4 7 6 3
167 139 142 199 194 190 151 129 117 98 82 67 36 12 17 68 84 78 62 71 118 130 139 144 142 144 138 134 134 137 143 143 140 139 136 133 131 125 121 121 120 118 116 110 105 99 88 81 74 66 62 58 53 51 49 46 44 42 39 37 35 34 31 28 27 27 25 22 20 18 16 14 12 12 11 9 8 6 5 6 7 6 7 7 4 360
175 162 165 221 195 147 107 116 114 111 127 99 358 328 21 87 88 83 70 60 77 91 91 108 128 138 138 139 140 140 142 139 136 136 133 129 125 121 123 125 121 119 117 110 107 101 90 83 76 68 64 60 55 54 51 48 47 44 40 38 36 34 33 30 27 26 24 23 21 18 17 16 14 14 12 11 9 8 7 6 5 6 7 8 6 1
178 173 157 311 177 133 105 114 126 134 153 122 331 3 86 95 90 82 74 62 69 86 97 109 128 139 139 138 136 135 137 134 131 129 123 121 123 123 124 124 122 121 117 112 109 101 90 84 79 73 67 62 59 56 53 50 48 44 41 39 36 34 33 30 27 25 23 22 20 19 18 17 15 15 14 12 10 9 9 8 5 4 5 7 6 3
178 181 148 66 82 136 139 153 145 121 86 159 111 84 90 99 98 87 70 56 70 100 113 122 134 137 136 135 133 132 132 125 117 114 116 122 127 126 125 124 124 123 117 113 111 101 94 87 80 75 70 66 63 59 55 52 49 45 43 40 37 36 33 29 28 26 22 21 20 18 17 17 16 15 15 14 12 9 9 10 7 4 5 5 4 3
175 185 149 105 143 167 147 120 114 137 221 183 153 130 108 93 105 108 89 66 81 115 126 131 135 134 134 134 133 132 128 119 110 113 123 130 129 128 128 126 125 123 118 114 109 102 96 89 82 78 73 69 66 60 56 54 51 48 45 41 38 36 33 29 28 26 22 21 19 16 16 17 17 16 15 14 14 11 9 8 8 7 7 6 4 4
156 189 155 147 195 188 148 120 136 170 187 187 180 162 104 83 100 107 102 97 115 131 136 137 136 137 138 137 137 137 130 118 115 131 137 136 132 131 130 127 126 123 119 116 110 104 98 89 84 80 74 71 68 62 58 55 52 49 45 42 39 36 33 30 27 25 23 22 19 16 16 16 18 19 16 15 16 14 10 8 8 9 11 10 6 3
110 31 13 155 194 195 174 164 160 150 123 165 173 159 118 116 128 121 110 149 155 147 147 144 140 143 144 142 143 145 137 118 128 146 147 142 137 136 133 128 127 124 119 118 112 106 100 93 87 82 75 72 67 61 59 56 55 52 47 42 39 36 33 28 25 23 22 22 20 17 16 17 19 20 17 16 16 15 13 10 8 8 11 14 11 4
91 43 0 195 198 196 178 152 129 60 60 135 157 154 140 145 155 166 220 183 163 161 157 150 147 148 146 147 153 159 153 141 147 149 149 145 139 139 136 130 130 127 123 121 114 106 101 94 88 83 77 71 67 62 60 59 56 52 47 43 39 36 32 27 25 23 21 22 20 18 17 16 17 19 19 19 18 16 14 13 11 8 8 12 13 8
79 62 59 224 200 172 143 112 100 79 86 134 154 160 159 162 178 215 242 147 154 160 158 153 151 149 149 157 164 146 116 133 141 142 144 143 140 140 137 132 131 129 127 127 119 108 102 95 88 84 79 74 70 65 61 59 56 51 48 44 40 36 31 28 27 23 22 22 20 18 17 14 15 19 19 18 18 16 14 12 12 12 9 8 11 11
112 103 163 250 206 138 96 97 112 100 60 168 150 148 162 187 202 164 108 130 145 153 154 154 152 151 157 162 144 114 119 130 135 138 141 142 140 138 136 134 135 133 132 130 123 111 103 98 92 86 80 76 71 66 62 59 55 50 47 43 39 36 32 30 28 25 24 23 20 19 18 14 14 16 15 15 17 15 12 10 11 13 12 8 9 11
102 135 161 161 95 105 107 111 118 110 210 190 151 134 171 229 140 118 120 129 140 147 149 149 150 153 155 142 122 120 126 131 134 137 140 140 138 137 138 137 137 138 133 127 122 115 106 101 95 86 81 77 71 66 62 57 53 50 45 41 37 34 34 33 29 26 26 25 23 22 21 16 14 15 15 17 17 14 13 10 6 8 10 10 10 11
18 354 162 134 347 174 148 142 108 113 141 173 160 112 95 116 126 128 129 133 141 145 145 144 145 149 144 130 126 129 130 132 137 139 140 140 139 140 141 139 136 134 127 119 119 115 107 101 96 88 82 76 70 66 60 55 53 49 43 40 36 31 32 33 29 27 28 27 25 25 23 20 18 14 12 15 16 15 15 10 3 5 10 12 13 12
38 70 93 79 36 63 87 90 106 111 114 116 106 102 106 118 129 134 133 135 141 144 144 142 140 140 138 134 133 134 134 137 139 140 140 140 140 141 140 137 132 127 120 117 116 111 105 101 95 88 82 75 69 66 60 55 53 48 43 40 36 31 31 31 30 29 29 30 28 25 22 21 19 13 10 13 15 16 16 11 5 7 12 13 14 14
126 120 103 92 98 83 60 66 98 107 106 103 105 110 116 122 131 136 135 137 141 143 144 143 140 139 140 139 137 136 137 139 140 139 140 140 140 140 136 131 128 124 120 118 115 110 106 101 93 88 84 77 70 65 61 57 54 48 43 39 35 34 33 31 33 32 29 27 28 24 21 21 21 17 9 11 14 17 17 15 10 10 12 12 13 15
139 130 114 118 129 112 74 87 107 109 112 113 113 117 119 122 130 136 136 138 141 143 144 144 141 141 141 140 138 137 138 140 140 140 142 141 140 139 134 130 129 126 121 118 115 113 110 103 96 91 84 78 70 66 65 62 55 49 45 41 37 36 33 30 33 34 30 27 27 24 21 21 22 19 11 10 14 16 15 15 13 11 11 10 11 13
122 117 113 115 120 114 113 121 117 112 115 118 119 123 125 127 130 131 132 136 139 140 141 142 142 141 140 140 139 138 137 140 141 141 142 141 139 136 132 130 130 127 123 119 115 114 112 106 102 95 86 79 72 69 68 62 53 49 47 43 38 36 35 34 34 35 33 29 26 24 23 21 20 21 16 11 13 13 10 11 12 11 11 11 10 11
95 107 105 103 110 114 120 127 125 119 118 123 126 128 129 130 130 130 132 134 134 135 137 139 140 140 139 139 140 138 138 143 145 143 140 137 135 133 131 130 129 128 125 120 116 115 113 108 103 95 88 81 75 73 71 62 54 51 49 44 38 36 37 36 34 34 33 28 24 23 24 21 18 19 18 12 9 8 5 7 12 11 11 11 10 10
93 108 110 115 125 135 145 147 142 131 128 133 132 130 131 131 131 131 133 134 134 136 137 137 137 138 138 140 141 140 143 149 150 144 137 134 134 133 130 129 129 128 127 122 117 115 112 107 103 97 90 83 77 74 70 64 58 54 48 43 38 37 37 34 32 32 29 26 24 21 20 18 15 16 16 13 10 6 3 5 9 9 9 10 9 7
86 100 137 146 145 146 150 153 147 133 132 136 134 131 133 134 134 133 135 136 137 138 138 137 137 139 139 141 143 144 146 148 146 140 136 134 133 132 131 130 129 128 127 123 119 116 113 107 103 99 92 85 79 72 68 65 61 53 46 41 38 37 36 34 32 28 22 23 25 20 14 13 13 12 13 13 12 9 7 6 6 3 3 6 7 5
Height
1472 1474 1474 1471 1469 1467 1466 1465 1464 1459 1455 1455 1456 1460 1460 1457 1454 1447 1448 1452 1456 1464 1469 1466 1468 1474 1478 1478 1477 1478 1478 1479 1481 1486 1492 1495 1499 1503 1505 1509 1512 1514 1516 1518 1521 1524 1525 1525 1524 1525 1525 1526 1527 1527 1527 1527 1526 1527 1527 1526 1526 1527 1528 1529 1529 1530 1531 1532 1533 1534 1534 1534 1534 1534 1534 1534 1534 1535 1535 1535 1535 1535 1534 1535 1535 1536
1469 1471 1468 1465 1464 1462 1462 1462 1462 1459 1455 1452 1452 1455 1457 1454 1449 1442 1444 1450 1454 1463 1466 1463 1469 1477 1481 1483 1483 1484 1484 1486 1488 1491 1496 1498 1501 1505 1508 1510 1513 1515 1517 1519 1521 1523 1524 1525 1525 1526 1526 1526 1527 1527 1526 1526 1525 1526 1525 1525 1526 1526 1527 1528 1529 1530 1531 1531 1532 1533 1533 1533 1533 1533 1533 1533 1533 1533 1534 1534 1534 1533 1533 1533 1533 1533
1467 1466 1462 1461 1460 1459 1459 1459 1460 1460 1458 1456 1451 1452 1455 1451 1446 1441 1440 1445 1452 1461 1463 1463 1473 1482 1486 1489 1491 1492 1492 1494 1498 1500 1502 1504 1505 1509 1512 1513 1515 1517 1518 1520 1521 1523 1524 1525 1525 1525 1526 1526 1527 1526 1526 1525 1525 1525 1525 1525 1525 1526 1527 1527 1528 1529 1530 1530 1531 1532 1532 1532 1532 1532 1531 1531 1531 1532 1532 1533 1532 1531 1531 1531 1531 1531
1465 1462 1458 1458 1458 1458 1458 1457 1459 1459 1458 1458 1452 1452 1453 1448 1448 1447 1441 1442 1450 1458 1459 1464 1477 1485 1490 1495 1496 1499 1499 1499 1503 1507 1509 1510 1511 1514 1515 1517 1519 1520 1520 1522 1523 1524 1525 1526 1525 1525 1526 1526 1526 1525 1525 1525 1525 1525 1525 1525 1525 1526 1527 1527 1528 1528 1529 1529 1530 1531 1531 1531 1531 1530 1530 1530 1530 1531 1531 1531 1530 1530 1529 1529 1529 1529
1457 1455 1454 1455 1455 1456 1457 1456 1457 1459 1458 1457 1453 1451 1449 1445 1446 1445 1442 1444 1451 1459 1457 1462 1482 1491 1493 1499 1501 1502 1502 1502 1506 1510 1513 1515 1516 1517 1518 1519 1521 1523 1523 1524 1525 1526 1527 1527 1527 1526 1526 1526 1525 1525 1525 1525 1525 1525 1524 1525 1525 1525 1526 1526 1527 1528 1528 1528 1529 1530 1530 1530 1530 1529 1529 1529 1529 1529 1529 1529 1529 1528 1527 1527 1527 1527
1449 1449 1450 1452 1453 1453 1456 1455 1454 1457 1458 1457 1453 1449 1445 1442 1441 1441 1444 1451 1461 1468 1456 1461 1493 1502 1494 1498 1503 1502 1504 1506 1508 1512 1515 1518 1519 1520 1520 1522 1523 1525 1526 1526 1527 1528 1528 1528 1527 1527 1526 1526 1526 1526 1526 1525 1525 1525 1525 1525 1525 1525 1525 1526 1527 1527 1528 1528 1528 1529 1529 1529 1529 1528 1528 1527 1527 1527 1527 1528 1527 1527 1526 1525 1525 1525
1444 1443 1445 1449 1450 1451 1454 1452 1450 1453 1457 1458 1453 1447 1444 1440 1439 1441 1448 1457 1467 1470 1456 1455 1485 1501 1495 1495 1499 1500 1503 1507 1510 1513 1517 1520 1521 1521 1522 1524 1525 1526 1527 1527 1527 1528 1528 1528 1527 1527 1527 1526 1526 1526 1526 1526 1525 1525 1525 1525 1525 1525 1525 1525 1526 1526 1527 1527 1527 1528 1528 1528 1528 1527 1527 1526 1526 1526 1526 1526 1526 1525 1525 1524 1524 1524
1439 1441 1442 1445 1447 1449 1451 1450 1447 1449 1455 1457 1448 1445 1447 1443 1442 1443 1450 1460 1462 1463 1461 1454 1466 1487 1491 1488 1491 1496 1503 1508 1512 1515 1519 1520 1521 1523 1523 1525 1526 1527 1528 1527 1527 1527 1528 1528 1527 1527 1527 1526 1526 1526 1525 1525 1525 1524 1524 1524 1524 1524 1524 1525 1526 1526 1526 1526 1526 1526 1527 1527 1527 1526 1526 1526 1525 1525 1524 1524 1524 1524 1524 1523 1522 1522
1436 1439 1439 1441 1445 1446 1446 1446 1444 1446 1452 1451 1442 1443 1446 1444 1443 1440 1445 1457 1457 1463 1471 1459 1458 1480 1486 1481 1485 1493 1499 1508 1514 1517 1520 1520 1521 1523 1524 1526 1527 1527 1528 1527 1527 1527 1527 1528 1527 1527 1527 1526 1526 1525 1525 1524 1524 1524 1523 1523 1524 1523 1524 1524 1525 1525 1525 1526 1526 1525 1525 1525 1525 1525 1525 1524 1524 1524 1524 1523 1523 1523 1522 1522 1521 1520
1433 1436 1434 1436 1442 1442 1442 1443 1441 1443 1448 1445 1439 1442 1444 1444 1443 1440 1442 1449 1456 1471 1478 1462 1460 1478 1486 1484 1488 1493 1496 1504 1512 1517 1519 1520 1521 1523 1525 1526 1527 1527 1528 1528 1528 1528 1528 1527 1527 1527 1526 1526 1526 1525 1525 1524 1523 1523 1523 1523 1523 1523 1523 1524 1524 1525 1525 1525 1524 1524 1524 1523 1523 1523 1523 1523 1523 1523 1523 1523 1522 1521 1521 1520 1520 1519
1427 1432 1431 1430 1436 1437 1438 1440 1438 1440 1444 1443 1442 1443 1445 1446 1445 1444 1442 1443 1462 1480 1474 1459 1458 1471 1487 1491 1488 1488 1490 1495 1507 1515 1517 1519 1521 1523 1525 1526 1527 1528 1528 1529 1529 1528 1528 1528 1527 1527 1526 1526 1526 1525 1524 1524 1524 1523 1523 1523 1523 1523 1523 1523 1524 1524 1524 1524 1523 1523 1522 1522 1522 1522 1522 1522 1522 1522 1522 1522 1521 1520 1519 1518 1518 1517
1424 1430 1431 1428 1431 1434 1436 1438 1438 1438 1440 1444 1445 1443 1449 1454 1454 1455 1449 1450 1475 1485 1468 1455 1454 1465 1485 1492 1487 1484 1485 1492 1503 1511 1514 1518 1520 1522 1524 1525 1527 1528 1529 1529 1529 1529 1528 1528 1528 1527 1527 1526 1526 1526 1525 1525 1525 1524 1524 1524 1524 1524 1523 1523 1523 1523 1523 1523 1522 1522 1522 1521 1521 1521 1521 1521 1521 1521 1521 1520 1519 1518 1518 1517 1516 1516
1427 1426 1429 1430 1430 1432 1437 1439 1440 1439 1440 1445 1445 1446 1457 1465 1470 1474 1465 1463 1476 1476 1461 1451 1453 1470 1487 1488 1485 1486 1489 1496 1503 1508 1513 1516 1519 1521 1523 1525 1526 1528 1528 1529 1529 1530 1529 1529 1529 1528 1528 1527 1527 1527 1527 1526 1526 1526 1525 1525 1525 1525 1524 1524 1523 1523 1523 1522 1522 1522 1521 1520 1519 1519 1520 1520 1520 1520 1519 1519 1518 1517 1516 1515 1514 1514
1435 1427 1425 1429 1429 1431 1436 1438 1441 1442 1441 1444 1446 1449 1460 1468 1480 1488 1477 1469 1471 1466 1455 1443 1450 1481 1499 1495 1493 1493 1496 1502 1506 1511 1514 1515 1518 1521 1522 1524 1526 1527 1528 1530 1530 1531 1531 1530 1530 1529 1528 1528 1528 1528 1528 1527 1527 1527 1526 1526 1526 1526 1525 1525 1525 1524 1523 1522 1522 1521 1520 1519 1519 1519 1519 1518 1518 1518 1518 1517 1517 1516 1515 1514 1513 1512
1440 1436 1425 1428 1432 1433 1435 1433 1434 1438 1440 1442 1440 1443 1451 1458 1472 1483 1478 1472 1472 1466 1454 1446 1460 1488 1503 1504 1502 1500 1502 1506 1510 1513 1514 1516 1519 1521 1523 1525 1527 1528 1529 1531 1532 1532 1532 1531 1530 1530 1529 1529 1529 1529 1529 1528 1528 1527 1527 1527 1527 1527 1527 1526 1526 1525 1524 1523 1522 1521 1520 1519 1519 1518 1517 1517 1517 1517 1516 1516 1515 1515 1514 1512 1512 1511
1436 1435 1422 1427 1432 1431 1435 1432 1427 1434 1441 1440 1436 1440 1446 1447 1453 1464 1467 1465 1468 1471 1463 1467 1486 1496 1499 1505 1505 1503 1508 1510 1512 1514 1513 1517 1520 1521 1525 1526 1527 1530 1530 1531 1533 1533 1533 1532 1531 1531 1530 1530 1530 1530 1530 1529 1529 1528 1528 1528 1528 1527 1528 1527 1527 1527 1525 1523 1522 1521 1520 1519 1518 1517 1516 1516 1516 1516 1515 1515 1514 1513 1512 1511 1510 1510
1436 1433 1419 1425 1431 1428 1433 1432 1425 1431 1438 1439 1440 1439 1437 1438 1443 1456 1465 1460 1466 1479 1476 1481 1503 1507 1505 1511 1507 1506 1512 1513 1513 1515 1514 1517 1520 1522 1525 1527 1529 1530 1531 1533 1534 1534 1534 1533 1532 1532 1532 1532 1531 1531 1531 1530 1530 1530 1529 1529 1529 1528 1528 1528 1528 1527 1525 1523 1522 1522 1521 1520 1518 1516 1516 1515 1514 1514 1514 1513 1513 1512 1511 1510 1509 1508
1430 1430 1418 1419 1429 1427 1428 1430 1427 1426 1429 1436 1442 1435 1430 1439 1442 1449 1466 1470 1474 1484 1479 1482 1502 1508 1506 1512 1511 1508 1511 1513 1513 1514 1516 1518 1520 1522 1525 1528 1530 1531 1532 1534 1534 1534 1534 1534 1534 1534 1533 1533 1532 1532 1532 1531 1531 1531 1530 1530 1530 1529 1528 1528 1528 1527 1526 1524 1522 1522 1521 1520 1518 1517 1515 1514 1514 1513 1512 1512 1511 1510 1510 1509 1508 1507
1422 1429 1420 1416 1426 1427 1425 1431 1432 1425 1423 1428 1433 1430 1435 1451 1452 1451 1464 1474 1480 1484 1482 1489 1500 1498 1496 1504 1510 1509 1508 1510 1512 1514 1517 1519 1520 1523 1526 1529 1531 1532 1533 1534 1534 1535 1535 1535 1535 1535 1534 1534 1533 1533 1533 1532 1532 1532 1532 1531 1530 1529 1529 1528 1528 1528 1527 1525 1522 1521 1520 1520 1519 1517 1516 1514 1513 1512 1511 1510 1509 1509 1509 1508 1507 1506
1418 1427 1424 1417 1421 1424 1425 1432 1434 1429 1425 1424 1427 1430 1436 1445 1449 1450 1454 1462 1472 1477 1482 1499 1506 1496 1492 1498 1502 1504 1504 1507 1512 1515 1518 1521 1522 1524 1527 1530 1532 1533 1534 1535 1535 1536 1536 1536 1536 1535 1535 1534 1534 1534 1534 1534 1533 1532 1532 1531 1530 1530 1530 1529 1528 1528 1527 1525 1523 1522 1521 1520 1519 1518 1516 1515 1514 1512 1511 1510 1509 1508 1507 1506 1505 1504
1415 1424 1427 1420 1419 1425 1428 1429 1429 1428 1426 1426 1430 1434 1439 1441 1441 1444 1446 1448 1459 1468 1475 1495 1507 1500 1497 1498 1496 1499 1503 1507 1511 1515 1518 1521 1524 1526 1527 1531 1533 1533 1535 1536 1536 1537 1537 1537 1536 1536 1536 1535 1535 1535 1535 1534 1534 1533 1533 1532 1530 1530 1529 1529 1528 1528 1527 1525 1524 1522 1521 1520 1519 1518 1517 1516 1515 1513 1511 1510 1508 1507 1506 1505 1504 1503
1415 1422 1427 1424 1423 1427 1426 1423 1425 1426 1423 1427 1432 1432 1436 1441 1443 1452 1455 1445 1446 1456 1460 1475 1498 1504 1502 1500 1497 1497 1503 1508 1512 1515 1519 1522 1525 1527 1529 1531 1533 1534 1536 1536 1537 1537 1537 1537 1537 1536 1536 1536 1536 1536 1536 1535 1534 1534 1533 1532 1531 1530 1529 1530 1529 1529 1528 1525 1524 1522 1521 1520 1519 1518 1517 1516 1515 1513 1512 1510 1508 1506 1505 1504 1503 1501
1414 1420 1425 1426 1424 1424 1422 1420 1424 1426 1421 1422 1428 1428 1430 1434 1439 1451 1458 1447 1443 1448 1448 1463 1493 1508 1505 1501 1498 1498 1503 1509 1513 1515 1519 1523 1526 1529 1531 1532 1534 1535 1536 1537 1537 1537 1537 1537 1537 1537 1537 1537 1537 1536 1536 1536 1535 1535 1533 1532 1531 1530 1530 1530 1529 1529 1528 1525 1524 1522 1521 1520 1519 1518 1517 1516 1515 1514 1511 1510 1508 1506 1504 1503 1501 1500
1416 1422 1427 1429 1425 1421 1418 1418 1421 1425 1423 1422 1423 1426 1429 1429 1430 1437 1442 1440 1445 1451 1452 1472 1501 1511 1508 1503 1499 1500 1505 1510 1514 1516 1519 1524 1527 1530 1532 1533 1535 1536 1536 1537 1537 1537 1538 1538 1537 1537 1537 1537 1538 1537 1537 1537 1536 1535 1534 1532 1532 1531 1530 1530 1530 1529 1527 1526 1525 1523 1521 1520 1519 1518 1517 1516 1515 1513 1511 1509 1507 1505 1503 1501 1500 1499
1420 1425 1427 1433 1436 1433 1429 1427 1425 1425 1424 1423 1423 1425 1427 1425 1424 1430 1432 1437 1450 1451 1447 1470 1501 1510 1508 1506 1503 1504 1508 1512 1515 1518 1521 1525 1528 1530 1532 1534 1535 1536 1537 1537 1538 1538 1537 1538 1538 1537 1538 1538 1539 1539 1538 1538 1537 1535 1534 1532 1532 1531 1531 1530 1530 1529 1528 1526 1525 1524 1522 1521 1520 1519 1518 1516 1515 1513 1511 1509 1507 1505 1503 1501 1499 1498
1419 1424 1425 1434 1442 1444 1441 1434 1427 1424 1424 1424 1422 1423 1425 1425 1426 1431 1435 1444 1454 1449 1446 1469 1498 1510 1511 1508 1507 1509 1511 1515 1518 1520 1523 1525 1528 1530 1532 1534 1535 1536 1537 1537 1538 1538 1537 1537 1538 1538 1539 1540 1539 1539 1539 1538 1537 1536 1534 1533 1532 1532 1531 1530 1530 1529 1528 1527 1526 1525 1524 1522 1521 1520 1518 1517 1515 1513 1511 1509 1507 1504 1502 1500 1498 1497
1417 1421 1423 1426 1430 1433 1433 1425 1417 1419 1424 1425 1422 1422 1423 1425 1427 1429 1436 1444 1446 1448 1464 1482 1492 1505 1514 1511 1510 1511 1512 1516 1519 1521 1524 1526 1528 1531 1532 1534 1535 1535 1537 1538 1538 1538 1538 1538 1539 1539 1540 1540 1540 1540 1539 1538 1537 1536 1534 1533 1533 1533 1532 1531 1531 1530 1529 1528 1527 1526 1525 1523 1522 1520 1519 1517 1515 1513 1511 1509 1507 1504 1502 1500 1498 1496
1419 1423 1422 1423 1423 1424 1424 1419 1414 1415 1419 1420 1423 1425 1425 1425 1428 1430 1436 1441 1439 1449 1479 1491 1486 1497 1511 1511 1511 1513 1513 1517 1519 1521 1525 1526 1528 1531 1532 1533 1535 1535 1537 1538 1538 1539 1539 1540 1541 1541 1541 1541 1541 1540 1540 1539 1537 1536 1535 1534 1534 1534 1533 1532 1532 1531 1531 1530 1528 1528 1526 1525 1523 1521 1520 1518 1515 1513 1511 1509 1507 1504 1502 1500 1498 1496
1421 1425 1424 1426 1427 1425 1423 1422 1420 1417 1417 1420 1425 1428 1427 1426 1428 1431 1437 1442 1443 1453 1476 1488 1489 1496 1506 1510 1513 1514 1515 1518 1519 1522 1525 1526 1528 1530 1531 1533 1534 1536 1537 1538 1539 1540 1541 1542 1542 1543 1543 1542 1541 1541 1540 1539 1538 1537 1536 1536 1535 1535 1534 1533 1533 1532 1532 1531 1529 1529 1527 1525 1524 1522 1520 1518 1516 1514 1511 1509 1507 1505 1503 1501 1498 1496
1419 1425 1426 1428 1430 1427 1424 1426 1426 1423 1421 1423 1425 1427 1428 1428 1428 1430 1438 1446 1452 1461 1471 1480 1490 1499 1504 1509 1513 1515 1517 1519 1521 1523 1525 1526 1529 1530 1531 1533 1534 1536 1538 1539 1540 1542 1542 1543 1544 1543 1543 1543 1542 1541 1540 1539 1538 1538 1537 1537 1537 1536 1535 1535 1534 1533 1533 1532 1531 1530 1528 1526 1524 1522 1520 1518 1517 1515 1512 1510 1508 1505 1503 1501 1499 1497
1419 1426 1427 1430 1437 1436 1430 1429 1430 1430 1430 1428 1426 1428 1431 1435 1436 1439 1446 1452 1459 1470 1477 1482 1493 1503 1507 1510 1513 1516 1519 1520 1522 1524 1525 1526 1528 1529 1531 1533 1535 1537 1539 1540 1542 1543 1544 1544 1544 1544 1544 1543 1542 1541 1540 1540 1539 1539 1539 1538 1538 1538 1537 1536 1535 1535 1534 1533 1532 1530 1528 1526 1525 1523 1521 1519 1518 1516 1514 1511 1509 1507 1505 1502 1500 1498
1420 1428 1430 1433 1442 1441 1434 1435 1437 1435 1437 1439 1442 1445 1446 1446 1449 1453 1457 1456 1459 1473 1485 1489 1496 1504 1507 1510 1514 1518 1520 1521 1523 1524 1524 1526 1528 1529 1531 1534 1536 1538 1540 1542 1543 1544 1545 1545 1545 1545 1544 1543 1543 1542 1541 1541 1540 1540 1540 1540 1540 1540 1539 1538 1537 1536 1535 1534 1533 1531 1529 1528 1526 1524 1522 1521 1519 1517 1515 1513 1510 1508 1506 1504 1502 1500
1421 1432 1439 1440 1443 1445 1440 1439 1440 1441 1448 1456 1460 1460 1457 1454 1456 1460 1463 1461 1461 1471 1482 1485 1491 1500 1505 1509 1513 1517 1520 1522 1523 1524 1525 1527 1528 1530 1533 1535 1538 1540 1542 1543 1544 1545 1545 1545 1545 1545 1544 1544 1543 1542 1542 1542 1542 1542 1542 1542 1541 1541 1540 1540 1538 1537 1537 1535 1534 1532 1531 1529 1527 1525 1524 1522 1520 1519 1516 1514 1511 1509 1507 1505 1503 1501
1424 1433 1443 1440 1441 1451 1451 1443 1443 1454 1464 1470 1467 1461 1458 1459 1461 1466 1473 1475 1474 1476 1477 1480 1489 1499 1506 1509 1512 1517 1520 1522 1524 1525 1526 1528 1529 1532 1534 1537 1539 1541 1543 1544 1545 1545 1546 1545 1545 1545 1544 1544 1544 1543 1543 1543 1543 1543 1543 1543 1542 1542 1541 1541 1540 1539 1538 1537 1535 1534 1532 1530 1528 1527 1525 1523 1522 1520 1517 1515 1513 1511 1509 1506 1505 1502
1427 1431 1439 1441 1441 1453 1459 1453 1456 1467 1472 1472 1469 1462 1459 1463 1465 1471 1479 1481 1482 1484 1483 1487 1496 1501 1505 1510 1513 1517 1521 1523 1525 1527 1528 1530 1532 1533 1536 1538 1540 1542 1544 1545 1545 1546 1546 1546 1546 1545 1545 1545 1545 1544 1544 1544 1544 1544 1544 1543 1543 1542 1542 1541 1541 1540 1539 1538 1536 1535 1533 1532 1530 1528 1527 1525 1523 1521 1518 1517 1514 1512 1510 1508 1506 1504
1427 1430 1435 1444 1449 1457 1462 1461 1466 1474 1474 1471 1471 1467 1466 1470 1469 1473 1484 1488 1488 1490 1490 1494 1500 1503 1506 1511 1514 1517 1521 1523 1526 1528 1530 1532 1534 1536 1537 1539 1541 1543 1544 1545 1545 1546 1546 1546 1546 1546 1546 1546 1546 1545 1545 1545 1545 1545 1545 1544 1544 1543 1543 1542 1541 1541 1540 1539 1537 1536 1534 1533 1531 1530 1528 1526 1524 1522 1520 1518 1516 1514 1512 1510 1508 1506
1424 1428 1433 1446 1455 1456 1461 1469 1476 1481 1479 1474 1473 1470 1469 1472 1469 1472 1487 1496 1494 1493 1495 1496 1501 1505 1508 1511 1515 1518 1520 1523 1527 1531 1533 1534 1536 1537 1538 1540 1541 1543 1544 1545 1546 1546 1546 1546 1546 1546 1547 1547 1546 1546 1546 1546 1546 1546 1545 1545 1545 1544 1544 1543 1543 1542 1541 1540 1539 1537 1536 1534 1533 1531 1530 1528 1526 1524 1522 1520 1518 1516 1514 1512 1509 1507
1424 1427 1432 1444 1451 1449 1457 1471 1476 1476 1475 1472 1471 1469 1467 1471 1470 1471 1485 1499 1498 1496 1499 1500 1502 1506 1509 1511 1515 1518 1519 1523 1529 1533 1534 1535 1537 1538 1539 1540 1542 1543 1544 1545 1546 1546 1547 1547 1547 1547 1548 1547 1547 1547 1547 1547 1547 1547 1547 1546 1546 1546 1545 1544 1544 1543 1542 1541 1540 1538 1537 1535 1534 1533 1531 1529 1527 1526 1524 1522 1519 1517 1516 1514 1511 1509
1428 1430 1433 1440 1444 1444 1450 1460 1463 1465 1467 1465 1466 1468 1468 1471 1473 1472 1483 1498 1501 1499 1501 1503 1504 1507 1509 1511 1514 1515 1516 1522 1529 1532 1533 1535 1537 1538 1540 1541 1542 1543 1544 1545 1546 1546 1547 1547 1548 1548 1548 1548 1548 1548 1548 1548 1548 1548 1548 1547 1547 1547 1546 1545 1545 1544 1543 1542 1541 1540 1538 1536 1535 1534 1532 1531 1529 1527 1526 1523 1521 1519 1517 1515 1514 1511
1433 1438 1442 1443 1444 1444 1447 1455 1462 1467 1467 1463 1463 1467 1468 1470 1475 1477 1480 1489 1496 1499 1501 1503 1505 1507 1509 1512 1514 1514 1515 1519 1525 1529 1532 1535 1537 1539 1540 1541 1542 1544 1545 1545 1546 1547 1547 1548 1548 1549 1549 1549 1549 1548 1549 1549 1548 1548 1548 1548 1548 1547 1547 1546 1546 1545 1544 1543 1542 1540 1539 1537 1536 1535 1533 1532 1530 1529 1527 1525 1523 1521 1518 1516 1515 1513
1440 1444 1447 1446 1445 1446 1449 1458 1467 1470 1468 1464 1464 1467 1468 1471 1476 1477 1474 1477 1488 1496 1500 1502 1504 1507 1509 1512 1513 1514 1515 1517 1522 1527 1531 1534 1536 1539 1540 1541 1543 1544 1545 1546 1546 1547 1548 1549 1549 1549 1549 1549 1550 1549 1549 1549 1549 1549 1549 1549 1549 1548 1548 1547 1547 1546 1545 1544 1542 1541 1540 1538 1537 1536 1535 1533 1532 1531 1529 1527 1525 1523 1520 1518 1516 1514
1445 1449 1450 1450 1450 1452 1455 1460 1468 1471 1470 1466 1465 1467 1470 1472 1475 1475 1474 1478 1486 1493 1498 1501 1504 1506 1509 1512 1513 1514 1516 1519 1524 1527 1531 1534 1536 1538 1540 1542 1543 1544 1545 1545 1546 1548 1549 1549 1549 1550 1550 1550 1551 1551 1550 1550 1550 1550 1550 1550 1549 1549 1549 1548 1547 1546 1545 1544 1543 1542 1541 1539 1538 1537 1536 1535 1533 1532 1530 1528 1526 1524 1522 1519 1517 1514
1444 1449 1454 1457 1457 1458 1461 1465 1469 1471 1469 1466 1466 1469 1470 1471 1473 1475 1479 1484 1489 1493 1497 1501 1504 1506 1509 1512 1514 1516 1518 1522 1525 1528 1531 1535 1537 1538 1541 1542 1543 1544 1544 1544 1547 1548 1549 1549 1550 1550 1551 1551 1551 1551 1551 1551 1551 1551 1551 1551 1550 1550 1549 1549 1548 1547 1546 1545 1544 1543 1542 1540 1539 1538 1536 1535 1534 1533 1531 1529 1527 1525 1523 1521 1518 1516
1443 1445 1450 1458 1459 1458 1462 1468 1468 1466 1466 1466 1467 1469 1470 1472 1474 1476 1479 1484 1490 1494 1497 1500 1504 1507 1510 1511 1514 1517 1520 1523 1526 1529 1532 1535 1537 1539 1541 1541 1542 1543 1544 1546 1548 1549 1549 1550 1550 1551 1551 1552 1552 1552 1552 1552 1552 1552 1552 1552 1551 1551 1550 1549 1549 1548 1547 1546 1545 1544 1543 1542 1540 1539 1537 1536 1535 1533 1532 1530 1528 1526 1524 1521 1519 1517
1448 1445 1446 1456 1462 1459 1462 1467 1467 1465 1467 1468 1468 1470 1473 1475 1477 1480 1481 1485 1490 1494 1497 1500 1504 1507 1510 1513 1515 1518 1521 1524 1527 1530 1532 1535 1537 1539 1540 1541 1542 1544 1545 1547 1548 1549 1550 1550 1551 1551 1552 1552 1552 1553 1553 1553 1553 1553 1553 1552 1552 1552 1551 1550 1550 1549 1548 1547 1546 1545 1544 1543 1541 1540 1538 1537 1536 1534 1532 1531 1528 1526 1524 1522 1520 1518
1449 1447 1447 1456 1463 1463 1465 1469 1468 1468 1470 1470 1471 1474 1476 1477 1480 1483 1485 1488 1491 1495 1499 1501 1504 1508 1511 1514 1516 1518 1522 1525 1527 1530 1533 1535 1537 1539 1540 1542 1543 1545 1546 1547 1548 1549 1550 1551 1551 1552 1552 1553 1553 1554 1554 1554 1554 1553 1553 1553 1553 1552 1552 1551 1550 1549 1549 1548 1547 1546 1545 1544 1542 1541 1539 1538 1536 1535 1533 1531 1529 1527 1525 1523 1521 1520
1444 1445 1448 1454 1460 1465 1471 1473 1471 1471 1473 1473 1475 1477 1479 1481 1484 1486 1488 1491 1494 1497 1500 1503 1506 1509 1512 1515 1517 1519 1522 1525 1528 1530 1533 1535 1537 1538 1540 1542 1543 1545 1546 1547 1549 1550 1551 1551 1552 1553 1553 1554 1554 1554 1555 1555 1555 1555 1555 1554 1554 1553 1552 1552 1551 1550 1550 1548 1547 1547 1546 1544 1543 1541 1540 1538 1537 1536 1534 1532 1530 1528 1526 1524 1522 1521
1441 1444 1449 1454 1459 1466 1473 1475 1473 1475 1476 1476 1478 1480 1481 1483 1487 1488 1491 1494 1496 1499 1502 1505 1507 1510 1512 1516 1518 1520 1522 1526 1528 1530 1532 1535 1537 1538 1540 1542 1544 1545 1547 1548 1549 1550 1551 1552 1553 1554 1554 1555 1555 1555 1555 1555 1555 1556 1555 1555 1555 1554 1553 1552 1552 1551 1550 1549 1548 1547 1546 1545 1544 1542 1541 1539 1537 1536 1535 1533 1531 1529 1527 1526 1524 1522
1440 1446 1451 1458 1465 1470 1474 1475 1475 1477 1479 1480 1480 1482 1484 1486 1488 1490 1493 1496 1498 1501 1503 1506 1509 1511 1513 1516 1519 1520 1523 1526 1528 1530 1532 1534 1537 1539 1541 1542 1544 1545 1547 1549 1550 1551 1552 1553 1554 1554 1555 1555 1556 1556 1556 1556 1556 1556 1556 1556 1555 1555 1554 1553 1553 1552 1551 1550 1549 1548 1547 1546 1545 1543 1542 1540 1538 1536 1535 1534 1532 1530 1529 1527 1525 1523
1444 1451 1456 1461 1468 1472 1472 1473 1474 1476 1479 1481 1483 1484 1486 1489 1490 1492 1495 1497 1500 1502 1504 1507 1510 1513 1515 1518 1520 1521 1523 1525 1528 1530 1533 1535 1537 1539 1541 1543 1545 1546 1548 1549 1550 1551 1552 1553 1554 1555 1555 1556 1556 1556 1556 1556 1556 1556 1556 1556 1556 1555 1555 1554 1553 1552 1552 1551 1550 1549 1547 1547 1545 1544 1543 1541 1539 1537 1536 1534 1533 1532 1530 1529 1527 1525
1448 1452 1453 1457 1462 1466 1468 1470 1473 1475 1478 1481 1484 1486 1488 1491 1492 1494 1497 1499 1501 1503 1505 1507 1510 1514 1517 1519 1521 1522 1524 1525 1528 1531 1533 1536 1538 1540 1542 1544 1545 1546 1548 1549 1550 1552 1552 1553 1554 1555 1556 1556 1557 1557 1557 1557 1557 1557 1557 1557 1556 1556 1555 1555 1554 1553 1552 1551 1550 1549 1548 1547 1546 1545 1543 1543 1541 1540 1538 1536 1534 1533 1532 1530 1528 1526